Location: Unspecified
(0.0000°N, 0.0000°E)
Time: 18:58:48
(UTC+00:00)

Courier 1B Rocket - Pass Details

Date: 28 November 2019
Orbit: 920 x 1202 km, 28.2° (Epoch: 05 December)

Event Time Altitude Azimuth Distance (km) Brightness Sun altitude
Rises 07:04:53 0° 239° (WSW) 3,698 7.7 17.9°
Reaches altitude 10° 07:07:36 10° 238° (WSW) 2,711 7.1 18.5°
Maximum altitude 07:14:07 86° 150° (SSE) 940 5.4 20.0°
Drops below altitude 10° 07:20:22 10° 61° (ENE) 2,603 7.9 21.5°
Sets 07:22:56 0° 61° (ENE) 3,541 8.5 22.1°
